Date String (YYYY-MM-DD hh:mm:ss) UTC,Instrument flags,Ambient pressure (hPa),Sample flow (lpm),Bypass flow (lpm),Sample temperature (°C),Ambient temperature (°C),ASC tube jacket temperature (°C),LED temperature (°C),Box temperature (°C),Sample RH (%),Span deviation,Mass concentration (μg/m³),Mass concentration (μg/m³),Mass concentration (μg/m³)
DateTimeUTC,F1_M11,P_M11,Q1_M11,Q2_M11,T1_M11,T2_M11,T3_M11,T4_M11,T5_M11,U1_M11,ZSPAN_M11,X0_M11,X2_M11,X1_M11
2021-09-15 00:00:00,,0827.2,5.00,0.00,29.5,25.9,00.0,38.7,30.9,31.1,0000.2,0019.11,0010.64,0009.20
2021-09-15 00:01:00,,0827.3,5.01,0.00,29.4,26.3,00.0,38.6,30.9,31.2,-000.0,0019.24,0010.70,0009.22
2021-09-15 00:02:00,,0827.2,4.99,0.00,29.4,26.8,00.0,38.6,31.0,31.3,0000.2,0019.54,0010.70,0009.24
2021-09-15 00:03:00,,0827.3,5.01,0.00,29.4,27.2,00.0,38.5,31.1,31.7,0000.2,0019.83,0010.72,0009.24
2021-09-15 00:04:00,,0827.3,5.01,0.00,29.4,27.6,00.0,38.5,31.2,31.3,0000.2,0019.97,0010.77,0009.25
2021-09-15 00:05:00,,0827.3,4.99,0.00,29.5,28.0,00.0,38.5,31.3,31.3,0000.3,0019.03,0010.78,0009.25
2021-09-15 00:06:00,,0827.4,5.02,0.00,29.5,28.3,00.0,38.5,31.4,31.1,0000.4,0018.47,0010.73,0009.23
2021-09-15 00:07:00,,0827.3,4.99,0.00,29.6,28.5,00.0,38.6,31.5,31.1,0000.3,0018.87,0010.77,0009.24
2021-09-15 00:08:00,,0827.3,5.00,0.00,29.6,28.7,00.0,38.6,31.6,31.1,0000.4,0019.69,0010.80,0009.25
2021-09-15 00:09:00,,0827.3,5.01,0.00,29.7,28.9,00.0,38.6,31.6,31.2,0000.5,0020.15,0010.73,0009.21
2021-09-15 00:10:00,,0827.4,4.99,0.00,29.7,29.0,00.0,38.6,31.7,31.1,0000.4,0020.20,0010.66,0009.16
2021-09-15 00:11:00,,0827.4,5.00,0.00,29.8,28.9,00.0,38.7,31.7,31.0,0000.5,0019.99,0010.57,0009.11
2021-09-15 00:12:00,,0827.3,5.01,0.00,29.7,27.4,00.0,38.7,31.3,30.8,0000.6,0021.29,0010.61,0009.11
2021-09-15 00:13:00,,0827.4,4.99,0.00,29.6,26.0,00.0,38.7,30.9,31.3,0000.4,0021.95,0010.61,0009.11
2021-09-15 00:14:00,,0827.4,5.02,0.00,29.5,25.9,00.0,38.6,30.8,31.5,0000.4,0021.74,0010.57,0009.11
2021-09-15 00:15:00,,0827.4,5.01,0.00,29.4,26.3,00.0,38.6,30.9,31.8,0000.2,0021.70,0010.50,0009.10
2021-09-15 00:16:00,,0827.4,4.99,0.00,29.4,26.8,00.0,38.6,31.0,31.4,0000.2,0022.66,0010.45,0009.09
2021-09-15 00:17:00,,0827.4,5.00,0.00,29.4,27.3,00.0,38.5,31.2,31.5,0000.1,0023.26,0010.48,0009.05
2021-09-15 00:18:00,,0827.4,4.99,0.00,29.4,27.7,00.0,38.5,31.3,31.4,0000.0,0023.75,0010.43,0009.02
2021-09-15 00:19:00,,0827.5,5.00,0.00,29.5,28.0,00.0,38.5,31.3,31.6,-000.4,0023.37,0010.40,0008.97
2021-09-15 00:20:00,,0827.4,5.00,0.00,29.5,28.3,00.0,38.5,31.4,31.6,-000.3,0023.12,0010.37,0008.95
2021-09-15 00:21:00,,0827.4,4.99,0.00,29.6,28.5,00.0,38.6,31.5,31.4,0000.0,0023.72,0010.41,0008.98
2021-09-15 00:22:00,,0827.5,5.01,0.00,29.6,28.7,00.0,38.6,31.6,31.4,0000.2,0023.56,0010.41,0009.01
2021-09-15 00:23:00,,0827.5,5.00,0.00,29.7,28.8,00.0,38.6,31.6,31.7,0000.4,0022.02,0010.33,0008.97
2021-09-15 00:24:00,,0827.5,5.00,0.00,29.7,28.9,00.0,38.6,31.7,31.6,0000.4,0020.89,0010.24,0008.92
2021-09-15 00:25:00,,0827.5,5.00,0.00,29.8,29.1,00.0,38.7,31.7,31.4,0000.1,0020.81,0010.23,0008.89
2021-09-15 00:26:00,,0827.5,5.01,0.00,29.8,28.1,00.0,38.7,31.5,31.0,0000.3,0021.19,0010.28,0008.89
2021-09-15 00:27:00,,0827.4,5.00,0.00,29.6,26.4,00.0,38.7,31.0,31.6,0000.0,0020.57,0010.36,0008.90
2021-09-15 00:28:00,,0827.4,4.99,0.00,29.5,25.9,00.0,38.6,30.9,31.6,0000.0,0021.02,0010.39,0008.91
2021-09-15 00:29:00,,0827.4,5.00,0.00,29.4,26.1,00.0,38.6,30.9,31.3,0000.1,0021.76,0010.50,0008.97
2021-09-15 00:30:00,,0827.4,5.00,0.00,29.4,26.6,00.0,38.6,31.0,31.3,0000.3,0022.04,0010.58,0009.04
2021-09-15 00:31:00,,0827.4,5.00,0.00,29.4,27.1,00.0,38.5,31.1,31.3,0000.1,0022.07,0010.64,0009.10
2021-09-15 00:32:00,,0827.4,4.99,0.00,29.4,27.5,00.0,38.5,31.2,31.3,-000.0,0022.55,0010.67,0009.12
2021-09-15 00:33:00,,0827.4,5.01,0.00,29.4,27.8,00.0,38.5,31.3,31.4,0000.0,0023.26,0010.78,0009.15
2021-09-15 00:34:00,,0827.4,5.00,0.00,29.5,28.0,00.0,38.5,31.4,31.2,-000.3,0023.64,0010.89,0009.21
2021-09-15 00:35:00,,0827.4,5.01,0.00,29.5,28.3,00.0,38.5,31.4,31.1,-000.2,0024.25,0010.96,0009.30
2021-09-15 00:36:00,,0827.5,5.01,0.00,29.6,28.4,00.0,38.6,31.5,31.0,-000.1,0024.50,0011.05,0009.37
2021-09-15 00:37:00,,0827.4,4.98,0.00,29.6,28.6,00.0,38.6,31.5,30.8,-000.0,0024.28,0011.07,0009.41
2021-09-15 00:38:00,,0827.4,5.02,0.00,29.7,28.7,00.0,38.6,31.6,30.8,0000.1,0024.24,0011.08,0009.46
2021-09-15 00:39:00,,0827.4,4.99,0.00,29.7,28.8,00.0,38.6,31.6,30.7,0000.0,0023.02,0011.06,0009.51
2021-09-15 00:40:00,,0827.4,4.99,0.00,29.8,28.9,00.0,38.6,31.7,30.6,0000.0,0021.93,0011.01,0009.51
2021-09-15 00:41:00,,0827.4,5.01,0.00,29.8,28.6,00.0,38.7,31.6,30.6,-000.1,0022.31,0011.03,0009.52
2021-09-15 00:42:00,,0827.4,4.99,0.00,29.7,26.9,00.0,38.7,31.2,30.7,-000.0,0021.96,0011.07,0009.54
2021-09-15 00:43:00,,0827.4,5.01,0.00,29.5,25.7,00.0,38.6,30.8,31.1,-000.2,0020.74,0011.10,0009.58
2021-09-15 00:44:00,,0827.4,4.99,0.00,29.4,25.7,00.0,38.6,30.8,31.4,-000.5,0020.53,0011.10,0009.60
2021-09-15 00:45:00,,0827.4,5.00,0.00,29.3,26.1,00.0,38.6,30.8,31.6,-000.6,0020.71,0011.09,0009.61
2021-09-15 00:46:00,,0827.4,5.00,0.00,29.3,26.6,00.0,38.5,30.9,31.7,-000.7,0020.66,0011.12,0009.62
2021-09-15 00:47:00,,0827.4,5.00,0.00,29.3,27.1,00.0,38.5,31.1,31.7,-000.6,0021.51,0011.15,0009.64
2021-09-15 00:48:00,,0827.4,5.00,0.00,29.4,27.5,00.0,38.5,31.2,31.6,-000.6,0021.81,0011.14,0009.63
2021-09-15 00:49:00,,0827.4,5.00,0.00,29.4,27.8,00.0,38.5,31.2,31.5,-000.6,0021.98,0011.12,0009.62
2021-09-15 00:50:00,,0827.4,5.00,0.00,29.4,28.0,00.0,38.5,31.3,31.3,-000.8,0022.75,0011.15,0009.64
2021-09-15 00:51:00,,0827.4,4.99,0.00,29.5,28.2,00.0,38.5,31.4,31.2,-000.9,0022.92,0011.18,0009.66
2021-09-15 00:52:00,,0827.4,5.01,0.00,29.5,28.3,00.0,38.5,31.4,31.1,-000.7,0022.80,0011.15,0009.67
2021-09-15 00:53:00,,0827.4,5.01,0.00,29.6,28.5,00.0,38.5,31.5,31.1,-000.9,0023.33,0011.14,0009.68
2021-09-15 00:54:00,,0827.4,5.00,0.00,29.6,28.6,00.0,38.6,31.5,30.9,-000.8,0023.58,0011.13,0009.68
2021-09-15 00:55:00,,0827.3,5.00,0.00,29.7,28.7,00.0,38.6,31.6,30.9,-000.5,0023.64,0011.18,0009.67
2021-09-15 00:56:00,,0827.4,5.00,0.00,29.7,28.8,00.0,38.6,31.6,30.9,-000.4,0023.62,0011.22,0009.68
2021-09-15 00:57:00,,0827.4,4.99,0.00,29.8,28.9,00.0,38.6,31.7,30.8,-000.5,0023.14,0011.21,0009.69
2021-09-15 00:58:00,,0827.4,5.00,0.00,29.8,27.9,00.0,38.6,31.4,30.8,-000.3,0022.20,0011.16,0009.69
2021-09-15 00:59:00,,0827.3,5.00,0.00,29.6,26.5,00.0,38.6,31.1,31.0,-000.4,0022.10,0011.14,0009.69
